STARLINK-1215, 45225

Orbit data source: Space-Track

STARLINK-1215, 45225 is a payload satellite owned by SpaceX/Seattle (US) in LEO that was launched on Mon, 17 Feb 2020 UTC via an FALCON 9 launch vehicle from the Air Force Eastern Test Range (AFETR). Payload-class satellites include a variety of spacecraft equipped with specific instruments for various scientific and technological missions. These include communications satellites like Starlink; space stations such as the ISS; scientific satellites like the Hubble; Earth observation satellites from companies like Planet Labs, Umbra, and HawkEye 360; GPS; miniature CubeSats for education and research; and military/defense satellites.

Loading next visibility...
Identifier
45225, 2020-012AZ
Orbit
LEO
Country
Flag of USUS
Related business
Manufacturer
SpaceX/Seattle
Mission
Partially operational Commercial Communications
Bus & Motor
STARLINK, Unknown motor
Mass
260 kg wet, ~248 kg dry
Launch date (UTC)
2020-02-17 (7 years ago)
Launch vehicle
FALCON 9
Launch site
Air Force Eastern Test Range (AFETR)
Object type
Payload
Rocket body
Debris
Shape & HBR
Box + 1 Pan, 10.1 m
Radar Cross Section
13.562 m², Large (>1 m²)

Expand to show TLE details & history
Last TLE update: 2 days ago

TLE from 2 days ago
0 STARLINK-1215
1 45225U 20012AZ  26252.33220072  .00036325  00000-0  82145-3 0  9991
2 45225  53.1486 218.2662 0002616  87.3787 272.7519 15.42834714363698
Epoch: 2026-09-09T07:58Z
TLE epoch observation values (Epoch: 2026-09-09T07:58:22.142Z)
Latitude
0.00003°
Longitude
110.28818°
Altitude
438.566 km
Speed
7.65 km/s
True Right ascension
14h 33m 03s
True Declination
0° 00' 00"
Sunlit
Object was in daylight at epoch
Visualization orbit readout
Latitude
Unknown
Longitude
Unknown
Altitude
Unknown
Speed
Unknown
Apparent Right ascension
Unknown
Apparent Declination
Unknown
Sunlit
N/A
Visualization observer readout
Local Sidereal Time
23:26:02
Azimuth
Unknown
Elevation
Unknown
Doppler factor
Unknown
Orbital elements
Apogee altitude
439.791 km
Perigee altitude
436.224 km
Semi-major axis
6,816.144 km
Eccentricity
0.00026
Inclination
53.1486°
RAAN
218.2662°
Arg. of periapsis
87.3787°
True anomaly
272.72196°
Mean anomaly
272.7519°
Eccentric anomaly
272.73693°
Mean motion
3.85687 °/min
Orbital period
93.34 mins
BSTAR
0.00082145
Loading maneuver chart data...
Computing Atmospheric mass density...
Loading historical data...
Loading historical data...
Loading historical data...
Loading historical data...
Loading historical data...
Loading historical data...
Loading historical data...

Documentation

Showing up to 5 results
|